Time,TemperatureF,DewpointF,PressureIn,WindDirection,WindDirectionDegrees,WindSpeedMPH,WindSpeedGustMPH,Humidity,HourlyPrecipIn,Conditions,Clouds,dailyrainin,SolarRadiationWatts/m^2,SoftwareType,DateUTC
2013-12-18 00:00:00,30.2,27.1,30.23,WNW,297,0.0,1.0,88,0.00,,CLR,0.00,0.00,VWS V14.01,2013-12-18 06:00:00,
2013-12-18 00:04:00,30.2,26.8,30.23,WNW,297,0.0,0.0,87,0.00,,CLR,0.00,0.00,VWS V14.01,2013-12-18 06:04:00,
2013-12-18 00:05:00,30.2,26.8,30.23,WNW,297,0.0,0.0,87,0.00,,CLR,0.00,0.00,VWS V14.01,2013-12-18 06:05:00,
2013-12-18 00:09:00,30.1,26.7,30.23,WNW,297,0.0,0.0,87,0.00,,CLR,0.00,0.00,VWS V14.01,2013-12-18 06:09:00,
2013-12-18 00:10:00,30.1,27.0,30.23,WNW,297,0.0,1.0,88,0.00,,CLR,0.00,0.00,VWS V14.01,2013-12-18 06:10:00,
2013-12-18 00:15:00,30.4,27.5,30.23,WNW,297,0.0,0.0,89,0.00,,CLR,0.00,0.00,VWS V14.01,2013-12-18 06:15:00,
2013-12-18 00:20:00,30.5,27.4,30.23,WNW,297,0.0,0.0,88,0.00,,CLR,0.00,0.00,VWS V14.01,2013-12-18 06:20:00,
2013-12-18 00:25:00,30.3,26.9,30.23,WNW,297,0.0,0.0,87,0.00,,CLR,0.00,0.00,VWS V14.01,2013-12-18 06:25:00,
2013-12-18 00:30:00,30.3,27.2,30.23,WNW,297,1.0,1.0,88,0.00,,CLR,0.00,0.00,VWS V14.01,2013-12-18 06:30:00,
2013-12-18 00:35:00,30.4,27.5,30.22,WNW,297,0.0,1.0,89,0.00,,CLR,0.00,0.00,VWS V14.01,2013-12-18 06:35:00,
2013-12-18 00:40:00,30.8,28.0,30.22,WNW,297,1.0,2.0,89,0.00,,CLR,0.00,0.00,VWS V14.01,2013-12-18 06:40:00,
2013-12-18 00:45:00,31.5,28.6,30.20,WNW,297,0.0,2.0,89,0.00,,CLR,0.00,0.00,VWS V14.01,2013-12-18 06:45:00,
2013-12-18 00:50:00,31.7,28.3,30.20,WNW,297,0.0,0.0,87,0.00,,CLR,0.00,0.00,VWS V14.01,2013-12-18 06:50:00,
2013-12-18 00:55:00,31.5,27.5,30.20,WNW,297,0.0,0.0,85,0.00,,CLR,0.00,0.00,VWS V14.01,2013-12-18 06:55:00,
2013-12-18 01:00:00,31.2,27.5,30.20,WNW,297,0.0,1.0,86,0.00,,CLR,0.00,0.00,VWS V14.01,2013-12-18 07:00:00,
2013-12-18 01:05:00,31.1,27.4,30.20,WNW,297,0.0,0.0,86,0.00,,CLR,0.00,0.00,VWS V14.01,2013-12-18 07:05:00,
2013-12-18 01:10:00,30.8,26.8,30.20,WNW,297,0.0,0.0,85,0.00,,CLR,0.00,0.00,VWS V14.01,2013-12-18 07:10:00,
2013-12-18 01:15:00,30.5,26.2,30.20,WNW,297,0.0,0.0,84,0.00,,CLR,0.00,0.00,VWS V14.01,2013-12-18 07:15:00,
2013-12-18 01:20:00,30.3,26.1,30.20,WNW,297,0.0,0.0,84,0.00,,CLR,0.00,0.00,VWS V14.01,2013-12-18 07:20:00,
2013-12-18 01:25:00,29.9,25.7,30.20,WNW,297,0.0,0.0,84,0.00,,CLR,0.00,0.00,VWS V14.01,2013-12-18 07:25:00,
2013-12-18 01:30:00,29.6,25.4,30.19,WNW,297,0.0,0.0,84,0.00,,CLR,0.00,0.00,VWS V14.01,2013-12-18 07:30:00,
2013-12-18 01:35:00,29.2,25.0,30.19,WNW,297,0.0,0.0,84,0.00,,CLR,0.00,0.00,VWS V14.01,2013-12-18 07:35:00,
2013-12-18 01:40:00,28.9,24.7,30.19,WNW,297,0.0,0.0,84,0.00,,CLR,0.00,0.00,VWS V14.01,2013-12-18 07:40:00,
2013-12-18 01:45:00,28.5,24.6,30.18,WNW,297,0.0,0.0,85,0.00,,CLR,0.00,0.00,VWS V14.01,2013-12-18 07:45:00,
2013-12-18 01:50:00,28.3,24.7,30.18,WNW,297,0.0,0.0,86,0.00,,CLR,0.00,0.00,VWS V14.01,2013-12-18 07:50:00,
2013-12-18 01:55:00,28.0,24.4,30.18,WNW,297,0.0,0.0,86,0.00,,CLR,0.00,0.00,VWS V14.01,2013-12-18 07:55:00,
2013-12-18 02:00:00,27.9,24.5,30.18,WNW,297,0.0,0.0,87,0.00,,CLR,0.00,0.00,VWS V14.01,2013-12-18 08:00:00,
2013-12-18 02:05:00,27.6,24.8,30.18,WNW,297,0.0,0.0,89,0.00,,CLR,0.00,0.00,VWS V14.01,2013-12-18 08:05:00,
2013-12-18 02:10:00,27.5,25.0,30.18,WNW,297,0.0,0.0,90,0.00,,CLR,0.00,0.00,VWS V14.01,2013-12-18 08:10:00,
2013-12-18 02:15:00,27.4,24.9,30.18,WNW,297,0.0,0.0,90,0.00,,CLR,0.00,0.00,VWS V14.01,2013-12-18 08:15:00,
2013-12-18 02:20:00,27.2,24.7,30.18,WNW,297,0.0,0.0,90,0.00,,CLR,0.00,0.00,VWS V14.01,2013-12-18 08:20:00,
2013-12-18 02:25:00,27.1,24.6,30.18,WNW,297,0.0,0.0,90,0.00,,CLR,0.00,0.00,VWS V14.01,2013-12-18 08:25:00,
2013-12-18 02:30:00,27.0,24.5,30.17,WNW,297,0.0,0.0,90,0.00,,CLR,0.00,0.00,VWS V14.01,2013-12-18 08:30:00,
2013-12-18 02:35:00,26.9,24.4,30.17,WNW,297,0.0,0.0,90,0.00,,CLR,0.00,0.00,VWS V14.01,2013-12-18 08:35:00,
2013-12-18 02:40:00,26.8,24.3,30.17,WNW,297,0.0,0.0,90,0.00,,CLR,0.00,0.00,VWS V14.01,2013-12-18 08:40:00,
2013-12-18 02:45:00,26.7,24.2,30.18,WNW,297,0.0,0.0,90,0.00,,CLR,0.00,0.00,VWS V14.01,2013-12-18 08:45:00,
2013-12-18 02:50:00,26.5,24.2,30.18,WNW,297,0.0,0.0,91,0.00,,CLR,0.00,0.00,VWS V14.01,2013-12-18 08:50:00,
2013-12-18 02:51:00,26.5,24.2,30.18,WNW,297,0.0,0.0,91,0.00,,CLR,0.00,0.00,VWS V14.01,2013-12-18 08:51:00,
2013-12-18 02:55:00,26.5,24.2,30.18,WNW,297,0.0,0.0,91,0.00,,CLR,0.00,0.00,VWS V14.01,2013-12-18 08:55:00,
2013-12-18 02:56:00,26.5,24.2,30.18,WNW,297,0.0,0.0,91,0.00,,CLR,0.00,0.00,VWS V14.01,2013-12-18 08:56:00,
2013-12-18 03:00:00,26.5,24.5,30.19,WNW,297,0.0,0.0,92,0.00,,CLR,0.00,0.00,VWS V14.01,2013-12-18 09:00:00,
2013-12-18 03:01:00,26.5,24.5,30.19,WNW,297,0.0,0.0,92,0.00,,CLR,0.00,0.00,VWS V14.01,2013-12-18 09:01:00,
2013-12-18 03:05:00,26.6,24.6,30.19,WNW,297,0.0,0.0,92,0.00,,CLR,0.00,0.00,VWS V14.01,2013-12-18 09:05:00,
2013-12-18 03:06:00,26.6,24.6,30.19,WNW,297,0.0,0.0,92,0.00,,CLR,0.00,0.00,VWS V14.01,2013-12-18 09:06:00,
2013-12-18 03:10:00,26.7,25.0,30.19,WNW,297,0.0,0.0,93,0.00,,CLR,0.00,0.00,VWS V14.01,2013-12-18 09:10:00,
2013-12-18 03:11:00,26.7,25.0,30.19,WNW,297,0.0,0.0,93,0.00,,CLR,0.00,0.00,VWS V14.01,2013-12-18 09:11:00,
2013-12-18 03:15:00,27.0,25.2,30.19,WNW,297,0.0,1.0,93,0.00,,CLR,0.00,0.00,VWS V14.01,2013-12-18 09:15:00,
2013-12-18 03:16:00,27.0,25.2,30.19,WNW,297,0.0,0.0,93,0.00,,CLR,0.00,0.00,VWS V14.01,2013-12-18 09:16:00,
2013-12-18 03:20:00,27.4,25.9,30.19,WNW,297,0.0,0.0,94,0.00,,CLR,0.00,0.00,VWS V14.01,2013-12-18 09:20:00,
2013-12-18 03:21:00,27.5,26.0,30.19,WNW,297,0.0,0.0,94,0.00,,CLR,0.00,0.00,VWS V14.01,2013-12-18 09:21:00,
2013-12-18 03:25:00,28.1,26.6,30.19,WNW,297,1.0,2.0,94,0.00,,CLR,0.00,0.00,VWS V14.01,2013-12-18 09:25:00,
2013-12-18 03:26:00,28.2,26.7,30.19,WNW,297,1.0,1.0,94,0.00,,CLR,0.00,0.00,VWS V14.01,2013-12-18 09:26:00,
2013-12-18 03:30:00,29.0,27.2,30.19,WNW,300,0.0,2.0,93,0.00,,CLR,0.00,0.00,VWS V14.01,2013-12-18 09:30:00,
2013-12-18 03:31:00,29.0,27.2,30.19,WNW,300,0.0,0.0,93,0.00,,CLR,0.00,0.00,VWS V14.01,2013-12-18 09:31:00,
2013-12-18 03:35:00,29.3,27.0,30.19,WNW,300,0.0,2.0,91,0.00,,CLR,0.00,0.00,VWS V14.01,2013-12-18 09:35:00,
2013-12-18 03:36:00,29.3,27.0,30.19,WNW,300,0.0,1.0,91,0.00,,CLR,0.00,0.00,VWS V14.01,2013-12-18 09:36:00,
2013-12-18 03:40:00,29.3,26.7,30.19,WNW,300,1.0,1.0,90,0.00,,CLR,0.00,0.00,VWS V14.01,2013-12-18 09:40:00,
2013-12-18 03:41:00,29.3,26.7,30.19,WNW,300,1.0,1.0,90,0.00,,CLR,0.00,0.00,VWS V14.01,2013-12-18 09:41:00,
2013-12-18 03:45:00,29.6,27.0,30.19,WNW,300,0.0,2.0,90,0.00,,CLR,0.00,0.00,VWS V14.01,2013-12-18 09:45:00,
2013-12-18 03:46:00,29.6,27.0,30.19,WNW,300,0.0,0.0,90,0.00,,CLR,0.00,0.00,VWS V14.01,2013-12-18 09:46:00,
2013-12-18 03:50:00,29.7,27.1,30.19,WNW,300,0.0,0.0,90,0.00,,CLR,0.00,0.00,VWS V14.01,2013-12-18 09:50:00,
2013-12-18 03:51:00,29.7,27.1,30.19,WNW,300,0.0,0.0,90,0.00,,CLR,0.00,0.00,VWS V14.01,2013-12-18 09:51:00,
2013-12-18 03:55:00,29.8,27.0,30.19,WNW,300,0.0,0.0,89,0.00,,CLR,0.00,0.00,VWS V14.01,2013-12-18 09:55:00,
2013-12-18 03:56:00,29.8,27.0,30.19,WNW,300,0.0,0.0,89,0.00,,CLR,0.00,0.00,VWS V14.01,2013-12-18 09:56:00,
2013-12-18 04:00:00,29.9,27.1,30.18,WNW,300,0.0,0.0,89,0.00,,CLR,0.00,0.00,VWS V14.01,2013-12-18 10:00:00,
2013-12-18 04:01:00,29.9,27.1,30.18,WNW,300,0.0,0.0,89,0.00,,CLR,0.00,0.00,VWS V14.01,2013-12-18 10:01:00,
2013-12-18 04:05:00,29.9,27.1,30.18,WNW,300,0.0,0.0,89,0.00,,CLR,0.00,0.00,VWS V14.01,2013-12-18 10:05:00,
2013-12-18 04:06:00,29.9,27.1,30.18,WNW,300,0.0,0.0,89,0.00,,CLR,0.00,0.00,VWS V14.01,2013-12-18 10:06:00,
2013-12-18 04:10:00,29.9,26.8,30.18,WNW,300,0.0,0.0,88,0.00,,CLR,0.00,0.00,VWS V14.01,2013-12-18 10:10:00,
2013-12-18 04:11:00,29.8,26.7,30.18,WNW,300,0.0,0.0,88,0.00,,CLR,0.00,0.00,VWS V14.01,2013-12-18 10:11:00,
2013-12-18 04:15:00,29.8,26.7,30.18,WNW,300,0.0,0.0,88,0.00,,CLR,0.00,0.00,VWS V14.01,2013-12-18 10:15:00,
2013-12-18 04:16:00,29.8,26.7,30.18,WNW,300,0.0,0.0,88,0.00,,CLR,0.00,0.00,VWS V14.01,2013-12-18 10:16:00,
2013-12-18 04:20:00,29.7,26.6,30.18,WNW,300,0.0,1.0,88,0.00,,CLR,0.00,0.00,VWS V14.01,2013-12-18 10:20:00,
2013-12-18 04:21:00,29.7,26.6,30.18,WNW,300,0.0,0.0,88,0.00,,CLR,0.00,0.00,VWS V14.01,2013-12-18 10:21:00,
2013-12-18 04:25:00,29.8,27.0,30.18,WNW,300,0.0,1.0,89,0.00,,CLR,0.00,0.00,VWS V14.01,2013-12-18 10:25:00,
2013-12-18 04:26:00,29.8,27.0,30.18,WNW,300,1.0,1.0,89,0.00,,CLR,0.00,0.00,VWS V14.01,2013-12-18 10:26:00,
2013-12-18 04:30:00,29.9,27.1,30.17,WNW,300,0.0,1.0,89,0.00,,CLR,0.00,0.00,VWS V14.01,2013-12-18 10:30:00,
2013-12-18 04:31:00,29.9,27.1,30.17,WNW,300,0.0,0.0,89,0.00,,CLR,0.00,0.00,VWS V14.01,2013-12-18 10:31:00,
2013-12-18 04:35:00,29.9,26.8,30.17,WNW,300,0.0,0.0,88,0.00,,CLR,0.00,0.00,VWS V14.01,2013-12-18 10:35:00,
2013-12-18 04:36:00,29.9,26.8,30.17,WNW,300,0.0,0.0,88,0.00,,CLR,0.00,0.00,VWS V14.01,2013-12-18 10:36:00,
2013-12-18 04:40:00,29.8,26.7,30.17,WNW,300,0.0,0.0,88,0.00,,CLR,0.00,0.00,VWS V14.01,2013-12-18 10:40:00,
2013-12-18 04:41:00,29.8,26.7,30.17,WNW,300,0.0,0.0,88,0.00,,CLR,0.00,0.00,VWS V14.01,2013-12-18 10:41:00,
2013-12-18 04:45:00,29.7,26.6,30.17,WNW,300,1.0,2.0,88,0.00,,CLR,0.00,0.00,VWS V14.01,2013-12-18 10:45:00,
2013-12-18 04:46:00,29.7,26.6,30.17,WNW,300,0.0,1.0,88,0.00,,CLR,0.00,0.00,VWS V14.01,2013-12-18 10:46:00,
2013-12-18 04:50:00,30.2,27.4,30.17,WNW,302,0.0,2.0,89,0.00,,CLR,0.00,0.00,VWS V14.01,2013-12-18 10:50:00,
2013-12-18 04:51:00,30.3,27.5,30.17,WNW,302,1.0,1.0,89,0.00,,CLR,0.00,0.00,VWS V14.01,2013-12-18 10:51:00,
2013-12-18 04:55:00,30.5,27.4,30.17,WNW,302,0.0,1.0,88,0.00,,CLR,0.00,0.00,VWS V14.01,2013-12-18 10:55:00,
2013-12-18 04:56:00,30.6,27.5,30.17,WNW,302,0.0,0.0,88,0.00,,CLR,0.00,0.00,VWS V14.01,2013-12-18 10:56:00,
2013-12-18 05:00:00,30.7,27.3,30.17,WNW,302,0.0,2.0,87,0.00,,CLR,0.00,0.00,VWS V14.01,2013-12-18 11:00:00,
2013-12-18 05:01:00,30.8,27.4,30.17,WNW,302,0.0,0.0,87,0.00,,CLR,0.00,0.00,VWS V14.01,2013-12-18 11:01:00,
2013-12-18 05:05:00,30.8,27.1,30.17,WNW,302,0.0,1.0,86,0.00,,CLR,0.00,0.00,VWS V14.01,2013-12-18 11:05:00,
2013-12-18 05:06:00,30.8,27.1,30.17,WNW,302,0.0,0.0,86,0.00,,CLR,0.00,0.00,VWS V14.01,2013-12-18 11:06:00,
2013-12-18 05:10:00,30.7,27.0,30.17,WNW,302,0.0,3.0,86,0.00,,CLR,0.00,0.00,VWS V14.01,2013-12-18 11:10:00,
2013-12-18 05:11:00,30.6,26.9,30.17,WNW,302,0.0,1.0,86,0.00,,CLR,0.00,0.00,VWS V14.01,2013-12-18 11:11:00,
2013-12-18 05:15:00,30.8,27.4,30.17,ESE,121,3.0,3.0,87,0.00,,CLR,0.00,0.00,VWS V14.01,2013-12-18 11:15:00,
2013-12-18 05:16:00,30.8,27.4,30.17,South,182,0.0,3.0,87,0.00,,CLR,0.00,0.00,VWS V14.01,2013-12-18 11:16:00,
2013-12-18 05:20:00,31.0,27.6,30.17,SE,127,0.0,3.0,87,0.00,,CLR,0.00,0.00,VWS V14.01,2013-12-18 11:20:00,
2013-12-18 05:21:00,31.1,27.4,30.17,SE,127,1.0,2.0,86,0.00,,CLR,0.00,0.00,VWS V14.01,2013-12-18 11:21:00,
2013-12-18 05:25:00,31.2,27.5,30.17,SE,127,0.0,2.0,86,0.00,,CLR,0.00,0.00,VWS V14.01,2013-12-18 11:25:00,
2013-12-18 05:26:00,31.3,27.6,30.17,SE,127,0.0,0.0,86,0.00,,CLR,0.00,0.00,VWS V14.01,2013-12-18 11:26:00,
2013-12-18 05:30:00,31.6,27.6,30.16,ESE,106,1.0,3.0,85,0.00,,CLR,0.00,0.00,VWS V14.01,2013-12-18 11:30:00,
2013-12-18 05:31:00,31.7,27.7,30.16,ESE,106,1.0,2.0,85,0.00,,CLR,0.00,0.00,VWS V14.01,2013-12-18 11:31:00,
2013-12-18 05:35:00,32.0,27.7,30.16,ESE,111,1.0,2.0,84,0.00,,CLR,0.00,0.00,VWS V14.01,2013-12-18 11:35:00,
2013-12-18 05:36:00,32.1,27.8,30.16,ESE,111,2.0,2.0,84,0.00,,CLR,0.00,0.00,VWS V14.01,2013-12-18 11:36:00,
2013-12-18 05:40:00,32.3,28.0,30.16,SE,127,1.0,3.0,84,0.00,,CLR,0.00,0.00,VWS V14.01,2013-12-18 11:40:00,
2013-12-18 05:42:00,32.3,27.7,30.16,ESE,104,2.0,2.0,83,0.00,,CLR,0.00,0.00,VWS V14.01,2013-12-18 11:42:00,
2013-12-18 05:45:00,32.7,28.1,30.16,SE,134,1.0,5.0,83,0.00,,CLR,0.00,0.00,VWS V14.01,2013-12-18 11:45:00,
2013-12-18 05:47:00,32.7,28.1,30.16,East,98,3.0,4.0,83,0.00,,CLR,0.00,0.00,VWS V14.01,2013-12-18 11:47:00,
2013-12-18 05:50:00,33.0,28.4,30.16,SE,124,2.0,4.0,83,0.00,,CLR,0.00,0.00,VWS V14.01,2013-12-18 11:50:00,
2013-12-18 05:52:00,33.0,28.1,30.16,SE,124,0.0,2.0,82,0.00,,CLR,0.00,0.00,VWS V14.01,2013-12-18 11:52:00,
2013-12-18 05:55:00,33.2,28.3,30.16,ESE,117,0.0,3.0,82,0.00,,CLR,0.00,0.00,VWS V14.01,2013-12-18 11:55:00,
2013-12-18 05:57:00,33.2,28.3,30.16,ESE,111,0.0,2.0,82,0.00,,CLR,0.00,0.00,VWS V14.01,2013-12-18 11:57:00,
2013-12-18 06:00:00,33.3,28.4,30.15,ESE,111,1.0,3.0,82,0.00,,CLR,0.00,0.00,VWS V14.01,2013-12-18 12:00:00,
2013-12-18 06:02:00,33.3,28.4,30.15,ESE,111,1.0,1.0,82,0.00,,CLR,0.00,0.00,VWS V14.01,2013-12-18 12:02:00,
2013-12-18 06:05:00,33.3,28.4,30.15,ESE,111,3.0,3.0,82,0.00,,CLR,0.00,0.00,VWS V14.01,2013-12-18 12:05:00,
2013-12-18 06:07:00,33.4,28.5,30.15,SSE,149,1.0,3.0,82,0.00,,CLR,0.00,0.00,VWS V14.01,2013-12-18 12:07:00,
2013-12-18 06:10:00,33.5,28.3,30.15,SE,128,1.0,5.0,81,0.00,,CLR,0.00,0.00,VWS V14.01,2013-12-18 12:10:00,
2013-12-18 06:12:00,33.6,28.4,30.15,SE,136,1.0,4.0,81,0.00,,CLR,0.00,0.00,VWS V14.01,2013-12-18 12:12:00,
2013-12-18 06:15:00,33.7,28.8,30.15,SE,136,0.0,4.0,82,0.00,,CLR,0.00,0.00,VWS V14.01,2013-12-18 12:15:00,
2013-12-18 06:17:00,33.7,28.8,30.15,SE,136,0.0,0.0,82,0.00,,CLR,0.00,0.00,VWS V14.01,2013-12-18 12:17:00,
2013-12-18 06:20:00,33.7,28.8,30.15,SE,127,0.0,4.0,82,0.00,,CLR,0.00,0.00,VWS V14.01,2013-12-18 12:20:00,
2013-12-18 06:22:00,33.7,28.8,30.15,SE,127,0.0,1.0,82,0.00,,CLR,0.00,0.00,VWS V14.01,2013-12-18 12:22:00,
2013-12-18 06:25:00,33.8,28.9,30.15,SE,143,0.0,4.0,82,0.00,,CLR,0.00,0.00,VWS V14.01,2013-12-18 12:25:00,
2013-12-18 06:27:00,33.8,28.9,30.15,SE,145,0.0,1.0,82,0.00,,CLR,0.00,0.00,VWS V14.01,2013-12-18 12:27:00,
2013-12-18 06:30:00,33.9,29.0,30.15,ESE,123,0.0,3.0,82,0.00,,CLR,0.00,0.00,VWS V14.01,2013-12-18 12:30:00,
2013-12-18 06:32:00,33.9,29.0,30.15,ESE,117,0.0,1.0,82,0.00,,CLR,0.00,0.00,VWS V14.01,2013-12-18 12:32:00,
2013-12-18 06:35:00,34.0,29.1,30.15,SSE,153,0.0,4.0,82,0.00,,CLR,0.00,0.00,VWS V14.01,2013-12-18 12:35:00,
2013-12-18 06:37:00,34.1,29.2,30.15,SSE,153,0.0,3.0,82,0.00,,CLR,0.00,0.00,VWS V14.01,2013-12-18 12:37:00,
2013-12-18 06:40:00,34.2,29.0,30.15,SE,134,0.0,5.0,81,0.00,,CLR,0.00,0.00,VWS V14.01,2013-12-18 12:40:00,
2013-12-18 06:42:00,34.2,29.0,30.15,SE,142,5.0,5.0,81,0.00,,CLR,0.00,0.00,VWS V14.01,2013-12-18 12:42:00,
2013-12-18 06:45:00,34.3,29.1,30.15,South,176,3.0,5.0,81,0.00,,CLR,0.00,0.00,VWS V14.01,2013-12-18 12:45:00,
2013-12-18 06:47:00,34.3,29.1,30.15,South,175,0.0,3.0,81,0.00,,CLR,0.00,0.00,VWS V14.01,2013-12-18 12:47:00,
2013-12-18 06:50:00,34.3,28.8,30.15,SE,145,1.0,3.0,80,0.00,,CLR,0.00,0.00,VWS V14.01,2013-12-18 12:50:00,
2013-12-18 06:52:00,34.3,28.8,30.15,SSE,148,0.0,2.0,80,0.00,,CLR,0.00,0.00,VWS V14.01,2013-12-18 12:52:00,
2013-12-18 06:55:00,34.4,28.9,30.15,East,95,1.0,5.0,80,0.00,,CLR,0.00,0.00,VWS V14.01,2013-12-18 12:55:00,
2013-12-18 06:57:00,34.4,28.9,30.15,SSE,153,4.0,5.0,80,0.00,,CLR,0.00,0.00,VWS V14.01,2013-12-18 12:57:00,
2013-12-18 07:00:00,34.4,28.9,30.15,SE,142,0.0,5.0,80,0.00,,CLR,0.00,0.00,VWS V14.01,2013-12-18 13:00:00,
2013-12-18 07:02:00,34.3,28.8,30.15,SSE,157,2.0,3.0,80,0.00,,CLR,0.00,0.00,VWS V14.01,2013-12-18 13:02:00,
2013-12-18 07:05:00,34.3,28.8,30.15,SSE,156,0.0,3.0,80,0.00,,CLR,0.00,0.00,VWS V14.01,2013-12-18 13:05:00,
2013-12-18 07:07:00,34.3,28.8,30.15,SSE,156,0.0,1.0,80,0.00,,CLR,0.00,0.00,VWS V14.01,2013-12-18 13:07:00,
2013-12-18 07:10:00,34.3,28.8,30.15,SE,129,0.0,4.0,80,0.00,,CLR,0.00,0.00,VWS V14.01,2013-12-18 13:10:00,
2013-12-18 07:12:00,34.3,28.8,30.15,SE,129,0.0,2.0,80,0.00,,CLR,0.00,0.00,VWS V14.01,2013-12-18 13:12:00,
2013-12-18 07:15:00,34.3,28.8,30.15,SE,134,3.0,3.0,80,0.00,,CLR,0.00,0.00,VWS V14.01,2013-12-18 13:15:00,
2013-12-18 07:17:00,34.3,28.8,30.15,SE,136,1.0,7.0,80,0.00,,CLR,0.00,0.00,VWS V14.01,2013-12-18 13:17:00,
2013-12-18 07:20:00,34.3,28.5,30.15,SE,125,1.0,7.0,79,0.00,,CLR,0.00,0.00,VWS V14.01,2013-12-18 13:20:00,
2013-12-18 07:22:00,34.4,28.6,30.15,ESE,114,1.0,3.0,79,0.00,,CLR,0.00,0.00,VWS V14.01,2013-12-18 13:22:00,
2013-12-18 07:25:00,34.6,28.5,30.15,ENE,61,0.0,5.0,78,0.00,,CLR,0.00,0.00,VWS V14.01,2013-12-18 13:25:00,
2013-12-18 07:27:00,34.6,28.5,30.15,ENE,78,0.0,1.0,78,0.00,,CLR,0.00,0.00,VWS V14.01,2013-12-18 13:27:00,
2013-12-18 07:30:00,34.7,28.6,30.14,SE,143,3.0,4.0,78,0.00,,CLR,0.00,5.00,VWS V14.01,2013-12-18 13:30:00,
2013-12-18 07:32:00,34.8,28.3,30.14,SSE,163,3.0,3.0,77,0.00,,CLR,0.00,5.00,VWS V14.01,2013-12-18 13:32:00,
2013-12-18 07:35:00,34.9,28.4,30.14,ESE,122,0.0,5.0,77,0.00,,CLR,0.00,7.00,VWS V14.01,2013-12-18 13:35:00,
2013-12-18 07:37:00,35.0,28.5,30.14,East,98,2.0,3.0,77,0.00,,CLR,0.00,7.00,VWS V14.01,2013-12-18 13:37:00,
2013-12-18 07:40:00,35.1,28.3,30.14,SE,134,0.0,3.0,76,0.00,,CLR,0.00,11.00,VWS V14.01,2013-12-18 13:40:00,
2013-12-18 07:42:00,35.2,28.4,30.14,SE,139,0.0,1.0,76,0.00,,CLR,0.00,11.00,VWS V14.01,2013-12-18 13:42:00,
2013-12-18 07:45:00,35.3,28.2,30.14,SSE,155,1.0,8.0,75,0.00,,CLR,0.00,12.00,VWS V14.01,2013-12-18 13:45:00,
2013-12-18 07:47:00,35.4,28.3,30.14,ESE,120,8.0,8.0,75,0.00,,CLR,0.00,12.00,VWS V14.01,2013-12-18 13:47:00,
2013-12-18 07:50:00,35.6,28.1,30.14,SE,130,2.0,8.0,74,0.00,,CLR,0.00,14.00,VWS V14.01,2013-12-18 13:50:00,
2013-12-18 07:52:00,35.7,28.2,30.14,SE,128,1.0,5.0,74,0.00,,CLR,0.00,14.00,VWS V14.01,2013-12-18 13:52:00,
2013-12-18 07:55:00,35.9,28.4,30.14,SSE,157,5.0,8.0,74,0.00,,CLR,0.00,14.00,VWS V14.01,2013-12-18 13:55:00,
2013-12-18 07:57:00,36.1,28.3,30.14,SSE,148,4.0,8.0,73,0.00,,CLR,0.00,14.00,VWS V14.01,2013-12-18 13:57:00,
2013-12-18 08:00:00,36.2,28.4,30.14,SE,146,3.0,8.0,73,0.00,,CLR,0.00,16.00,VWS V14.01,2013-12-18 14:00:00,
2013-12-18 08:02:00,36.3,28.5,30.14,SE,139,3.0,8.0,73,0.00,,CLR,0.00,16.00,VWS V14.01,2013-12-18 14:02:00,
2013-12-18 08:05:00,36.4,28.2,30.14,SE,140,4.0,8.0,72,0.00,,CLR,0.00,18.00,VWS V14.01,2013-12-18 14:05:00,
2013-12-18 08:07:00,36.5,28.4,30.14,SSW,192,5.0,7.0,72,0.00,,CLR,0.00,19.00,VWS V14.01,2013-12-18 14:07:00,
2013-12-18 08:10:00,36.6,28.4,30.14,SE,132,8.0,11.0,72,0.00,,CLR,0.00,19.00,VWS V14.01,2013-12-18 14:10:00,
2013-12-18 08:12:00,36.7,28.5,30.14,South,178,1.0,8.0,72,0.00,,CLR,0.00,19.00,VWS V14.01,2013-12-18 14:12:00,
2013-12-18 08:15:00,36.8,28.3,30.13,SE,146,1.0,8.0,71,0.00,,CLR,0.00,21.00,VWS V14.01,2013-12-18 14:15:00,
2013-12-18 08:17:00,36.9,28.7,30.13,SSE,147,2.0,2.0,72,0.00,,CLR,0.00,21.00,VWS V14.01,2013-12-18 14:17:00,
2013-12-18 08:20:00,36.9,28.4,30.13,SSE,165,4.0,6.0,71,0.00,,CLR,0.00,25.00,VWS V14.01,2013-12-18 14:20:00,
2013-12-18 08:23:00,37.0,28.5,30.13,SW,221,3.0,7.0,71,0.00,,CLR,0.00,30.00,VWS V14.01,2013-12-18 14:23:00,
2013-12-18 08:25:00,37.2,28.7,30.13,SW,219,3.0,7.0,71,0.00,,CLR,0.00,26.00,VWS V14.01,2013-12-18 14:25:00,
2013-12-18 08:28:00,37.3,28.8,30.13,SSE,158,2.0,5.0,71,0.00,,CLR,0.00,26.00,VWS V14.01,2013-12-18 14:28:00,
2013-12-18 08:30:00,37.5,28.6,30.13,SSE,153,0.0,9.0,70,0.00,,CLR,0.00,32.00,VWS V14.01,2013-12-18 14:30:00,
2013-12-18 08:33:00,37.5,29.0,30.13,SSE,148,4.0,4.0,71,0.00,,CLR,0.00,125.00,VWS V14.01,2013-12-18 14:33:00,
2013-12-18 08:35:00,38.0,28.8,30.13,SE,133,4.0,7.0,69,0.00,,CLR,0.00,158.00,VWS V14.01,2013-12-18 14:35:00,
2013-12-18 08:38:00,38.2,28.9,30.13,SSE,148,1.0,12.0,69,0.00,,CLR,0.00,167.00,VWS V14.01,2013-12-18 14:38:00,
2013-12-18 08:40:00,38.5,28.9,30.13,SE,128,2.0,12.0,68,0.00,,CLR,0.00,174.00,VWS V14.01,2013-12-18 14:40:00,
2013-12-18 08:43:00,38.5,28.9,30.13,SSE,157,2.0,6.0,68,0.00,,CLR,0.00,181.00,VWS V14.01,2013-12-18 14:43:00,
2013-12-18 08:45:00,38.7,29.1,30.13,SE,138,5.0,10.0,68,0.00,,CLR,0.00,190.00,VWS V14.01,2013-12-18 14:45:00,
2013-12-18 08:48:00,38.7,29.4,30.13,SSE,147,3.0,5.0,69,0.00,,CLR,0.00,193.00,VWS V14.01,2013-12-18 14:48:00,
2013-12-18 08:50:00,38.9,29.2,30.13,SW,227,1.0,10.0,68,0.00,,CLR,0.00,200.00,VWS V14.01,2013-12-18 14:50:00,
2013-12-18 08:53:00,39.1,29.5,30.13,SSE,150,3.0,6.0,68,0.00,,CLR,0.00,207.00,VWS V14.01,2013-12-18 14:53:00,
2013-12-18 08:55:00,39.2,29.5,30.13,SE,145,0.0,6.0,68,0.00,,CLR,0.00,218.00,VWS V14.01,2013-12-18 14:55:00,
2013-12-18 08:58:00,39.2,29.9,30.13,ESE,104,3.0,4.0,69,0.00,,CLR,0.00,223.00,VWS V14.01,2013-12-18 14:58:00,
2013-12-18 09:00:00,39.3,29.6,30.13,South,184,5.0,8.0,68,0.00,,CLR,0.00,232.00,VWS V14.01,2013-12-18 15:00:00,
2013-12-18 09:03:00,39.5,29.8,30.13,SE,134,0.0,5.0,68,0.00,,CLR,0.00,220.00,VWS V14.01,2013-12-18 15:03:00,
2013-12-18 09:05:00,39.7,29.7,30.13,SE,133,5.0,5.0,67,0.00,,CLR,0.00,241.00,VWS V14.01,2013-12-18 15:05:00,
2013-12-18 09:08:00,39.9,29.9,30.13,ENE,73,1.0,8.0,67,0.00,,CLR,0.00,241.00,VWS V14.01,2013-12-18 15:08:00,
2013-12-18 09:10:00,40.0,29.9,30.13,SSW,205,0.0,8.0,67,0.00,,CLR,0.00,241.00,VWS V14.01,2013-12-18 15:10:00,
2013-12-18 09:13:00,40.0,29.9,30.13,SSW,209,1.0,4.0,67,0.00,,CLR,0.00,183.00,VWS V14.01,2013-12-18 15:13:00,
2013-12-18 09:15:00,40.2,30.1,30.12,NW,323,3.0,5.0,67,0.00,,CLR,0.00,227.00,VWS V14.01,2013-12-18 15:15:00,
2013-12-18 09:18:00,40.4,30.0,30.12,SSE,153,0.0,5.0,66,0.00,,CLR,0.00,232.00,VWS V14.01,2013-12-18 15:18:00,
2013-12-18 09:20:00,40.6,30.1,30.12,SE,127,2.0,5.0,66,0.00,,CLR,0.00,218.00,VWS V14.01,2013-12-18 15:20:00,
2013-12-18 09:23:00,40.7,30.6,30.12,South,171,0.0,3.0,67,0.00,,CLR,0.00,243.00,VWS V14.01,2013-12-18 15:23:00,
2013-12-18 09:25:00,41.0,30.5,30.12,SE,134,5.0,10.0,66,0.00,,CLR,0.00,174.00,VWS V14.01,2013-12-18 15:25:00,
2013-12-18 09:28:00,41.1,30.2,30.12,SSW,197,2.0,5.0,65,0.00,,CLR,0.00,271.00,VWS V14.01,2013-12-18 15:28:00,
2013-12-18 09:30:00,41.3,30.8,30.12,SSE,153,6.0,6.0,66,0.00,,CLR,0.00,271.00,VWS V14.01,2013-12-18 15:30:00,
2013-12-18 09:33:00,41.5,30.6,30.12,South,188,0.0,6.0,65,0.00,,CLR,0.00,288.00,VWS V14.01,2013-12-18 15:33:00,
2013-12-18 09:35:00,41.8,30.9,30.12,SSE,160,0.0,6.0,65,0.00,,CLR,0.00,218.00,VWS V14.01,2013-12-18 15:35:00,
2013-12-18 09:38:00,42.0,30.7,30.12,SSE,155,7.0,7.0,64,0.00,,CLR,0.00,237.00,VWS V14.01,2013-12-18 15:38:00,
2013-12-18 09:40:00,42.1,30.8,30.12,East,86,3.0,7.0,64,0.00,,CLR,0.00,264.00,VWS V14.01,2013-12-18 15:40:00,
2013-12-18 09:43:00,42.3,31.4,30.12,ESE,118,4.0,5.0,65,0.00,,CLR,0.00,302.00,VWS V14.01,2013-12-18 15:43:00,
2013-12-18 09:45:00,42.5,31.2,30.12,SE,144,0.0,10.0,64,0.00,,CLR,0.00,302.00,VWS V14.01,2013-12-18 15:45:00,
2013-12-18 09:48:00,42.8,31.5,30.12,South,175,0.0,9.0,64,0.00,,CLR,0.00,343.00,VWS V14.01,2013-12-18 15:48:00,
2013-12-18 09:50:00,43.1,31.4,30.12,SSE,151,2.0,9.0,63,0.00,,CLR,0.00,339.00,VWS V14.01,2013-12-18 15:50:00,
2013-12-18 09:53:00,43.3,31.6,30.12,ESE,115,2.0,7.0,63,0.00,,CLR,0.00,322.00,VWS V14.01,2013-12-18 15:53:00,
2013-12-18 09:55:00,43.4,31.3,30.12,SSE,165,0.0,7.0,62,0.00,,CLR,0.00,359.00,VWS V14.01,2013-12-18 15:55:00,
2013-12-18 09:58:00,43.8,32.0,30.12,South,189,0.0,1.0,63,0.00,,CLR,0.00,366.00,VWS V14.01,2013-12-18 15:58:00,
2013-12-18 10:00:00,44.2,32.0,30.12,SE,140,6.0,6.0,62,0.00,,CLR,0.00,366.00,VWS V14.01,2013-12-18 16:00:00,
2013-12-18 10:03:00,44.2,32.4,30.12,SSW,194,3.0,7.0,63,0.00,,CLR,0.00,367.00,VWS V14.01,2013-12-18 16:03:00,
2013-12-18 10:05:00,44.2,31.6,30.12,SSE,165,1.0,7.0,61,0.00,,CLR,0.00,371.00,VWS V14.01,2013-12-18 16:05:00,
2013-12-18 10:08:00,44.3,32.1,30.12,SE,134,3.0,7.0,62,0.00,,CLR,0.00,364.00,VWS V14.01,2013-12-18 16:08:00,
2013-12-18 10:10:00,44.4,31.4,30.12,South,184,2.0,8.0,60,0.00,,CLR,0.00,362.00,VWS V14.01,2013-12-18 16:10:00,
2013-12-18 10:13:00,44.5,32.3,30.12,SE,145,3.0,5.0,62,0.00,,CLR,0.00,376.00,VWS V14.01,2013-12-18 16:13:00,
2013-12-18 10:15:00,44.8,32.6,30.12,SW,223,0.0,5.0,62,0.00,,CLR,0.00,376.00,VWS V14.01,2013-12-18 16:15:00,
2013-12-18 10:18:00,44.9,32.3,30.12,SW,226,0.0,5.0,61,0.00,,CLR,0.00,352.00,VWS V14.01,2013-12-18 16:18:00,
2013-12-18 10:20:00,45.2,32.2,30.12,SW,219,1.0,5.0,60,0.00,,CLR,0.00,364.00,VWS V14.01,2013-12-18 16:20:00,
2013-12-18 10:23:00,45.4,32.3,30.12,East,89,1.0,4.0,60,0.00,,CLR,0.00,369.00,VWS V14.01,2013-12-18 16:23:00,
2013-12-18 10:25:00,45.6,32.5,30.12,ENE,76,3.0,4.0,60,0.00,,CLR,0.00,404.00,VWS V14.01,2013-12-18 16:25:00,
2013-12-18 10:28:00,46.0,32.9,30.12,SSE,147,3.0,7.0,60,0.00,,CLR,0.00,383.00,VWS V14.01,2013-12-18 16:28:00,
2013-12-18 10:30:00,46.3,32.8,30.11,SW,217,0.0,7.0,59,0.00,,CLR,0.00,408.00,VWS V14.01,2013-12-18 16:30:00,
2013-12-18 10:33:00,46.7,33.6,30.11,SSE,159,1.0,4.0,60,0.00,,CLR,0.00,408.00,VWS V14.01,2013-12-18 16:33:00,
2013-12-18 10:35:00,47.0,33.8,30.11,East,83,0.0,4.0,60,0.00,,CLR,0.00,388.00,VWS V14.01,2013-12-18 16:35:00,
2013-12-18 10:38:00,47.1,32.7,30.11,SSE,150,2.0,6.0,57,0.00,,CLR,0.00,411.00,VWS V14.01,2013-12-18 16:38:00,
2013-12-18 10:40:00,47.2,33.6,30.11,SSW,198,1.0,6.0,59,0.00,,CLR,0.00,418.00,VWS V14.01,2013-12-18 16:40:00,
2013-12-18 10:43:00,47.3,33.3,30.11,West,269,3.0,6.0,58,0.00,,CLR,0.00,403.00,VWS V14.01,2013-12-18 16:43:00,
2013-12-18 10:45:00,47.4,33.4,30.10,South,179,0.0,6.0,58,0.00,,CLR,0.00,436.00,VWS V14.01,2013-12-18 16:45:00,
2013-12-18 10:48:00,47.5,33.0,30.10,South,174,1.0,7.0,57,0.00,,CLR,0.00,422.00,VWS V14.01,2013-12-18 16:48:00,
2013-12-18 10:50:00,47.8,33.8,30.10,SSE,155,4.0,7.0,58,0.00,,CLR,0.00,431.00,VWS V14.01,2013-12-18 16:50:00,
2013-12-18 10:53:00,48.0,33.9,30.10,South,174,2.0,4.0,58,0.00,,CLR,0.00,454.00,VWS V14.01,2013-12-18 16:53:00,
2013-12-18 10:55:00,48.3,34.2,30.10,South,169,0.0,6.0,58,0.00,,CLR,0.00,454.00,VWS V14.01,2013-12-18 16:55:00,
2013-12-18 10:59:00,49.0,34.9,30.10,SE,137,7.0,7.0,58,0.00,,CLR,0.00,441.00,VWS V14.01,2013-12-18 16:59:00,
2013-12-18 11:00:00,48.8,33.4,30.10,SSE,168,1.0,8.0,55,0.00,,CLR,0.00,441.00,VWS V14.01,2013-12-18 17:00:00,
2013-12-18 11:04:00,48.8,34.3,30.10,WSW,240,2.0,4.0,57,0.00,,CLR,0.00,452.00,VWS V14.01,2013-12-18 17:04:00,
2013-12-18 11:05:00,48.9,34.3,30.10,SW,229,0.0,5.0,57,0.00,,CLR,0.00,427.00,VWS V14.01,2013-12-18 17:05:00,
2013-12-18 11:09:00,49.1,33.7,30.10,SSE,156,6.0,7.0,55,0.00,,CLR,0.00,445.00,VWS V14.01,2013-12-18 17:09:00,
2013-12-18 11:10:00,49.0,33.5,30.10,SSE,159,9.0,9.0,55,0.00,,CLR,0.00,436.00,VWS V14.01,2013-12-18 17:10:00,
2013-12-18 11:14:00,49.1,35.4,30.10,WNW,284,4.0,9.0,59,0.00,,CLR,0.00,446.00,VWS V14.01,2013-12-18 17:14:00,
2013-12-18 11:15:00,49.3,34.7,30.09,WSW,255,1.0,9.0,57,0.00,,CLR,0.00,446.00,VWS V14.01,2013-12-18 17:15:00,
2013-12-18 11:19:00,49.6,35.0,30.09,SSE,168,3.0,4.0,57,0.00,,CLR,0.00,445.00,VWS V14.01,2013-12-18 17:19:00,
2013-12-18 11:20:00,49.9,34.8,30.09,SSE,157,1.0,6.0,56,0.00,,CLR,0.00,457.00,VWS V14.01,2013-12-18 17:20:00,
2013-12-18 11:24:00,49.9,34.4,30.09,SW,226,1.0,5.0,55,0.00,,CLR,0.00,445.00,VWS V14.01,2013-12-18 17:24:00,
2013-12-18 11:25:00,49.9,34.8,30.09,SW,229,1.0,6.0,56,0.00,,CLR,0.00,432.00,VWS V14.01,2013-12-18 17:25:00,
2013-12-18 11:29:00,50.0,34.9,30.09,SSE,157,1.0,10.0,56,0.00,,CLR,0.00,427.00,VWS V14.01,2013-12-18 17:29:00,
2013-12-18 11:30:00,50.1,35.0,30.08,South,176,2.0,10.0,56,0.00,,CLR,0.00,492.00,VWS V14.01,2013-12-18 17:30:00,
2013-12-18 11:34:00,50.3,34.8,30.08,SSE,148,1.0,4.0,55,0.00,,CLR,0.00,499.00,VWS V14.01,2013-12-18 17:34:00,
2013-12-18 11:35:00,50.4,34.9,30.08,SSW,205,2.0,7.0,55,0.00,,CLR,0.00,475.00,VWS V14.01,2013-12-18 17:35:00,
2013-12-18 11:39:00,50.5,34.5,30.08,ESE,113,10.0,10.0,54,0.00,,CLR,0.00,485.00,VWS V14.01,2013-12-18 17:39:00,
2013-12-18 11:40:00,50.7,35.1,30.08,SSW,203,1.0,10.0,55,0.00,,CLR,0.00,485.00,VWS V14.01,2013-12-18 17:40:00,
2013-12-18 11:44:00,51.1,35.0,30.08,SW,227,4.0,7.0,54,0.00,,CLR,0.00,510.00,VWS V14.01,2013-12-18 17:44:00,
2013-12-18 11:45:00,51.2,35.1,30.07,South,184,0.0,7.0,54,0.00,,CLR,0.00,366.00,VWS V14.01,2013-12-18 17:45:00,
2013-12-18 11:49:00,51.5,36.3,30.07,SSE,156,2.0,4.0,56,0.00,,CLR,0.00,350.00,VWS V14.01,2013-12-18 17:49:00,
2013-12-18 11:50:00,51.6,36.4,30.07,SE,126,0.0,4.0,56,0.00,,CLR,0.00,272.00,VWS V14.01,2013-12-18 17:50:00,
2013-12-18 11:54:00,51.2,36.1,30.07,SSE,147,1.0,5.0,56,0.00,,CLR,0.00,388.00,VWS V14.01,2013-12-18 17:54:00,
2013-12-18 11:55:00,51.1,36.0,30.07,SE,145,2.0,7.0,56,0.00,,CLR,0.00,427.00,VWS V14.01,2013-12-18 17:55:00,
2013-12-18 11:59:00,51.4,35.3,30.07,ENE,68,2.0,6.0,54,0.00,,CLR,0.00,476.00,VWS V14.01,2013-12-18 17:59:00,
2013-12-18 12:00:00,51.4,36.2,30.05,SE,144,4.0,6.0,56,0.00,,CLR,0.00,429.00,VWS V14.01,2013-12-18 18:00:00,
2013-12-18 12:04:00,51.8,36.2,30.05,South,187,1.0,8.0,55,0.00,,CLR,0.00,446.00,VWS V14.01,2013-12-18 18:04:00,
2013-12-18 12:05:00,52.1,35.5,30.05,SSE,147,2.0,8.0,53,0.00,,CLR,0.00,446.00,VWS V14.01,2013-12-18 18:05:00,
2013-12-18 12:09:00,52.1,36.4,30.05,SE,138,5.0,7.0,55,0.00,,CLR,0.00,408.00,VWS V14.01,2013-12-18 18:09:00,
2013-12-18 12:10:00,52.1,36.0,30.05,SSE,155,0.0,7.0,54,0.00,,CLR,0.00,339.00,VWS V14.01,2013-12-18 18:10:00,
2013-12-18 12:14:00,52.5,37.3,30.05,SW,223,4.0,5.0,56,0.00,,CLR,0.00,367.00,VWS V14.01,2013-12-18 18:14:00,
2013-12-18 12:15:00,52.7,36.5,30.03,SE,142,4.0,5.0,54,0.00,,CLR,0.00,392.00,VWS V14.01,2013-12-18 18:15:00,
2013-12-18 12:19:00,53.2,37.0,30.03,South,176,0.0,4.0,54,0.00,,CLR,0.00,323.00,VWS V14.01,2013-12-18 18:19:00,
2013-12-18 12:20:00,53.4,36.7,30.03,SSW,206,0.0,5.0,53,0.00,,CLR,0.00,336.00,VWS V14.01,2013-12-18 18:20:00,
2013-12-18 12:24:00,53.4,37.2,30.03,SSW,205,2.0,5.0,54,0.00,,CLR,0.00,283.00,VWS V14.01,2013-12-18 18:24:00,
2013-12-18 12:25:00,53.4,37.2,30.03,SSW,200,1.0,5.0,54,0.00,,CLR,0.00,325.00,VWS V14.01,2013-12-18 18:25:00,
2013-12-18 12:29:00,53.3,36.1,30.03,SSE,150,3.0,4.0,52,0.00,,CLR,0.00,338.00,VWS V14.01,2013-12-18 18:29:00,
2013-12-18 12:30:00,53.3,38.0,30.02,SSW,202,0.0,4.0,56,0.00,,CLR,0.00,357.00,VWS V14.01,2013-12-18 18:30:00,
2013-12-18 12:34:00,53.4,36.2,30.02,SSE,155,1.0,8.0,52,0.00,,CLR,0.00,366.00,VWS V14.01,2013-12-18 18:34:00,
2013-12-18 12:35:00,53.5,36.3,30.02,SSE,157,2.0,8.0,52,0.00,,CLR,0.00,436.00,VWS V14.01,2013-12-18 18:35:00,
2013-12-18 12:39:00,53.9,37.2,30.02,SE,136,0.0,4.0,53,0.00,,CLR,0.00,387.00,VWS V14.01,2013-12-18 18:39:00,
2013-12-18 12:40:00,53.9,37.2,30.02,WSW,240,0.0,4.0,53,0.00,,CLR,0.00,387.00,VWS V14.01,2013-12-18 18:40:00,
2013-12-18 12:44:00,53.9,36.7,30.02,SSE,150,5.0,7.0,52,0.00,,CLR,0.00,387.00,VWS V14.01,2013-12-18 18:44:00,
2013-12-18 12:45:00,54.0,36.3,30.02,SE,138,3.0,7.0,51,0.00,,CLR,0.00,429.00,VWS V14.01,2013-12-18 18:45:00,
2013-12-18 12:49:00,53.8,36.1,30.02,SE,146,5.0,6.0,51,0.00,,CLR,0.00,403.00,VWS V14.01,2013-12-18 18:49:00,
2013-12-18 12:50:00,53.7,36.5,30.02,SE,140,3.0,7.0,52,0.00,,CLR,0.00,403.00,VWS V14.01,2013-12-18 18:50:00,
2013-12-18 12:54:00,54.0,36.3,30.02,SE,134,1.0,7.0,51,0.00,,CLR,0.00,429.00,VWS V14.01,2013-12-18 18:54:00,
2013-12-18 12:55:00,54.3,38.0,30.02,South,175,1.0,7.0,54,0.00,,CLR,0.00,427.00,VWS V14.01,2013-12-18 18:55:00,
2013-12-18 12:59:00,55.0,37.7,30.02,SSE,156,2.0,5.0,52,0.00,,CLR,0.00,454.00,VWS V14.01,2013-12-18 18:59:00,
2013-12-18 13:00:00,55.0,37.2,30.00,SE,131,0.0,5.0,51,0.00,,CLR,0.00,448.00,VWS V14.01,2013-12-18 19:00:00,
2013-12-18 13:04:00,55.3,37.0,30.00,SSE,155,2.0,7.0,50,0.00,,CLR,0.00,448.00,VWS V14.01,2013-12-18 19:04:00,
2013-12-18 13:05:00,55.6,36.8,30.00,SSW,211,3.0,7.0,49,0.00,,CLR,0.00,441.00,VWS V14.01,2013-12-18 19:05:00,
2013-12-18 13:10:00,55.7,36.8,30.00,SW,225,0.0,7.0,49,0.00,,CLR,0.00,436.00,VWS V14.01,2013-12-18 19:10:00,
2013-12-18 13:15:00,56.1,37.2,29.99,SSE,157,4.0,7.0,49,0.00,,CLR,0.00,438.00,VWS V14.01,2013-12-18 19:15:00,
2013-12-18 13:20:00,56.7,37.8,29.99,SE,136,2.0,5.0,49,0.00,,CLR,0.00,425.00,VWS V14.01,2013-12-18 19:20:00,
2013-12-18 13:25:00,57.6,38.6,29.99,SE,138,2.0,4.0,49,0.00,,CLR,0.00,413.00,VWS V14.01,2013-12-18 19:25:00,
2013-12-18 13:30:00,57.8,37.7,29.98,SE,140,2.0,5.0,47,0.00,,CLR,0.00,410.00,VWS V14.01,2013-12-18 19:30:00,
2013-12-18 13:35:00,58.6,38.5,29.98,SE,145,2.0,4.0,47,0.00,,CLR,0.00,418.00,VWS V14.01,2013-12-18 19:35:00,
2013-12-18 13:40:00,59.3,38.5,29.98,SSW,196,0.0,5.0,46,0.00,,CLR,0.00,410.00,VWS V14.01,2013-12-18 19:40:00,
2013-12-18 13:45:00,60.2,39.9,29.97,SW,232,0.0,6.0,47,0.00,,CLR,0.00,374.00,VWS V14.01,2013-12-18 19:45:00,
2013-12-18 13:50:00,60.7,37.5,29.97,WSW,240,3.0,9.0,42,0.00,,CLR,0.00,371.00,VWS V14.01,2013-12-18 19:50:00,
2013-12-18 13:55:00,61.4,39.3,29.97,WSW,254,2.0,5.0,44,0.00,,CLR,0.00,385.00,VWS V14.01,2013-12-18 19:55:00,
2013-12-18 14:00:00,61.8,37.9,29.96,South,185,2.0,11.0,41,0.00,,CLR,0.00,371.00,VWS V14.01,2013-12-18 20:00:00,
2013-12-18 14:01:00,61.8,37.9,29.96,WSW,240,3.0,11.0,41,0.00,,CLR,0.00,376.00,VWS V14.01,2013-12-18 20:01:00,
2013-12-18 14:05:00,62.2,37.0,29.96,SE,130,3.0,10.0,39,0.00,,CLR,0.00,366.00,VWS V14.01,2013-12-18 20:05:00,
2013-12-18 14:06:00,62.2,37.0,29.96,SE,130,3.0,10.0,39,0.00,,CLR,0.00,366.00,VWS V14.01,2013-12-18 20:06:00,
2013-12-18 14:10:00,62.6,36.7,29.96,West,276,4.0,16.0,38,0.00,,CLR,0.00,350.00,VWS V14.01,2013-12-18 20:10:00,
2013-12-18 14:11:00,62.6,36.7,29.96,West,276,4.0,16.0,38,0.00,,CLR,0.00,350.00,VWS V14.01,2013-12-18 20:11:00,
2013-12-18 14:15:00,63.1,37.1,29.95,SW,222,3.0,10.0,38,0.00,,CLR,0.00,355.00,VWS V14.01,2013-12-18 20:15:00,
2013-12-18 14:16:00,63.1,37.1,29.95,SW,222,3.0,10.0,38,0.00,,CLR,0.00,355.00,VWS V14.01,2013-12-18 20:16:00,
2013-12-18 14:20:00,63.0,34.9,29.95,WNW,292,6.0,13.0,35,0.00,,CLR,0.00,339.00,VWS V14.01,2013-12-18 20:20:00,
2013-12-18 14:21:00,63.0,34.9,29.95,WNW,292,6.0,13.0,35,0.00,,CLR,0.00,339.00,VWS V14.01,2013-12-18 20:21:00,
2013-12-18 14:25:00,62.7,34.7,29.95,WSW,242,7.0,13.0,35,0.00,,CLR,0.00,246.00,VWS V14.01,2013-12-18 20:25:00,
2013-12-18 14:26:00,62.7,34.7,29.95,SW,219,6.0,7.0,35,0.00,,CLR,0.00,246.00,VWS V14.01,2013-12-18 20:26:00,
2013-12-18 14:30:00,62.4,35.1,29.94,WSW,254,4.0,13.0,36,0.00,,CLR,0.00,250.00,VWS V14.01,2013-12-18 20:30:00,
2013-12-18 14:31:00,62.4,34.4,29.94,West,279,4.0,4.0,35,0.00,,CLR,0.00,250.00,VWS V14.01,2013-12-18 20:31:00,
2013-12-18 14:35:00,62.4,34.4,29.94,WSW,237,3.0,13.0,35,0.00,,CLR,0.00,241.00,VWS V14.01,2013-12-18 20:35:00,
2013-12-18 14:36:00,62.4,34.4,29.94,West,260,9.0,9.0,35,0.00,,CLR,0.00,241.00,VWS V14.01,2013-12-18 20:36:00,
2013-12-18 14:40:00,62.7,35.4,29.94,SSE,155,1.0,9.0,36,0.00,,CLR,0.00,297.00,VWS V14.01,2013-12-18 20:40:00,
2013-12-18 14:41:00,62.7,35.4,29.94,SW,217,4.0,4.0,36,0.00,,CLR,0.00,297.00,VWS V14.01,2013-12-18 20:41:00,
2013-12-18 14:45:00,62.7,35.4,29.93,West,262,5.0,9.0,36,0.00,,CLR,0.00,229.00,VWS V14.01,2013-12-18 20:45:00,
2013-12-18 14:46:00,62.7,35.4,29.93,WNW,293,3.0,5.0,36,0.00,,CLR,0.00,229.00,VWS V14.01,2013-12-18 20:46:00,
2013-12-18 14:50:00,62.5,35.2,29.93,WSW,246,3.0,11.0,36,0.00,,CLR,0.00,209.00,VWS V14.01,2013-12-18 20:50:00,
2013-12-18 14:51:00,62.5,35.2,29.93,ESE,104,1.0,5.0,36,0.00,,CLR,0.00,207.00,VWS V14.01,2013-12-18 20:51:00,
2013-12-18 14:55:00,62.2,34.9,29.93,SSW,204,1.0,7.0,36,0.00,,CLR,0.00,155.00,VWS V14.01,2013-12-18 20:55:00,
2013-12-18 14:56:00,62.2,34.9,29.93,SSW,204,0.0,1.0,36,0.00,,CLR,0.00,155.00,VWS V14.01,2013-12-18 20:56:00,
2013-12-18 15:00:00,61.8,35.3,29.93,SE,133,2.0,7.0,37,0.00,,CLR,0.00,204.00,VWS V14.01,2013-12-18 21:00:00,
2013-12-18 15:01:00,61.8,35.3,29.93,WSW,242,3.0,7.0,37,0.00,,CLR,0.00,204.00,VWS V14.01,2013-12-18 21:01:00,
2013-12-18 15:05:00,61.7,35.2,29.93,SW,220,1.0,12.0,37,0.00,,CLR,0.00,225.00,VWS V14.01,2013-12-18 21:05:00,
2013-12-18 15:06:00,61.6,35.8,29.93,SSW,210,1.0,1.0,38,0.00,,CLR,0.00,225.00,VWS V14.01,2013-12-18 21:06:00,
2013-12-18 15:10:00,62.2,36.3,29.93,WSW,244,0.0,6.0,38,0.00,,CLR,0.00,285.00,VWS V14.01,2013-12-18 21:10:00,
2013-12-18 15:11:00,62.3,36.4,29.93,SW,232,5.0,5.0,38,0.00,,CLR,0.00,285.00,VWS V14.01,2013-12-18 21:11:00,
2013-12-18 15:15:00,62.8,35.5,29.93,WSW,247,5.0,7.0,36,0.00,,CLR,0.00,292.00,VWS V14.01,2013-12-18 21:15:00,
2013-12-18 15:16:00,62.8,35.5,29.93,WSW,258,2.0,7.0,36,0.00,,CLR,0.00,292.00,VWS V14.01,2013-12-18 21:16:00,
2013-12-18 15:20:00,62.8,34.8,29.93,SSW,213,3.0,15.0,35,0.00,,CLR,0.00,188.00,VWS V14.01,2013-12-18 21:20:00,
2013-12-18 15:21:00,62.6,34.6,29.93,SW,225,3.0,5.0,35,0.00,,CLR,0.00,192.00,VWS V14.01,2013-12-18 21:21:00,
2013-12-18 15:25:00,62.3,35.0,29.93,SE,131,5.0,7.0,36,0.00,,CLR,0.00,183.00,VWS V14.01,2013-12-18 21:25:00,
2013-12-18 15:26:00,62.3,35.0,29.93,SW,215,2.0,5.0,36,0.00,,CLR,0.00,183.00,VWS V14.01,2013-12-18 21:26:00,
2013-12-18 15:30:00,62.3,34.3,29.93,WSW,249,3.0,9.0,35,0.00,,CLR,0.00,213.00,VWS V14.01,2013-12-18 21:30:00,
2013-12-18 15:31:00,62.3,34.3,29.93,SW,225,4.0,6.0,35,0.00,,CLR,0.00,213.00,VWS V14.01,2013-12-18 21:31:00,
2013-12-18 15:35:00,61.9,34.7,29.93,WSW,253,4.0,11.0,36,0.00,,CLR,0.00,109.00,VWS V14.01,2013-12-18 21:35:00,
2013-12-18 15:36:00,61.9,34.0,29.93,South,174,6.0,8.0,35,0.00,,CLR,0.00,109.00,VWS V14.01,2013-12-18 21:36:00,
2013-12-18 15:40:00,61.5,33.6,29.93,WNW,283,5.0,8.0,35,0.00,,CLR,0.00,100.00,VWS V14.01,2013-12-18 21:40:00,
2013-12-18 15:41:00,61.5,33.6,29.93,SW,214,2.0,7.0,35,0.00,,CLR,0.00,100.00,VWS V14.01,2013-12-18 21:41:00,
2013-12-18 15:45:00,60.8,33.7,29.92,WSW,238,5.0,7.0,36,0.00,,CLR,0.00,95.00,VWS V14.01,2013-12-18 21:45:00,
2013-12-18 15:46:00,60.8,33.7,29.92,WSW,237,2.0,5.0,36,0.00,,CLR,0.00,93.00,VWS V14.01,2013-12-18 21:46:00,
2013-12-18 15:50:00,60.7,34.3,29.92,SSW,213,0.0,8.0,37,0.00,,CLR,0.00,69.00,VWS V14.01,2013-12-18 21:50:00,
2013-12-18 15:51:00,60.6,34.2,29.92,SSW,213,7.0,7.0,37,0.00,,CLR,0.00,69.00,VWS V14.01,2013-12-18 21:51:00,
2013-12-18 15:55:00,60.1,33.8,29.92,East,100,3.0,7.0,37,0.00,,CLR,0.00,62.00,VWS V14.01,2013-12-18 21:55:00,
2013-12-18 15:56:00,60.1,33.8,29.92,WSW,242,4.0,4.0,37,0.00,,CLR,0.00,62.00,VWS V14.01,2013-12-18 21:56:00,
2013-12-18 16:00:00,60.0,33.7,29.92,SW,236,1.0,9.0,37,0.00,,CLR,0.00,54.00,VWS V14.01,2013-12-18 22:00:00,
2013-12-18 16:02:00,59.8,34.2,29.92,SW,231,4.0,4.0,38,0.00,,CLR,0.00,46.00,VWS V14.01,2013-12-18 22:02:00,
2013-12-18 16:05:00,59.6,33.3,29.92,WSW,241,3.0,7.0,37,0.00,,CLR,0.00,39.00,VWS V14.01,2013-12-18 22:05:00,
2013-12-18 16:07:00,59.6,34.0,29.92,South,171,1.0,5.0,38,0.00,,CLR,0.00,37.00,VWS V14.01,2013-12-18 22:07:00,
2013-12-18 16:10:00,59.7,33.4,29.92,East,95,2.0,9.0,37,0.00,,CLR,0.00,33.00,VWS V14.01,2013-12-18 22:10:00,
2013-12-18 16:12:00,59.7,33.4,29.92,SW,229,7.0,9.0,37,0.00,,CLR,0.00,35.00,VWS V14.01,2013-12-18 22:12:00,
2013-12-18 16:15:00,59.4,33.8,29.92,WSW,255,4.0,11.0,38,0.00,,CLR,0.00,32.00,VWS V14.01,2013-12-18 22:15:00,
2013-12-18 16:17:00,59.4,33.8,29.92,SW,236,0.0,5.0,38,0.00,,CLR,0.00,32.00,VWS V14.01,2013-12-18 22:17:00,
2013-12-18 16:20:00,58.7,33.8,29.92,South,190,0.0,5.0,39,0.00,,CLR,0.00,33.00,VWS V14.01,2013-12-18 22:20:00,
2013-12-18 16:22:00,58.5,33.7,29.92,South,190,0.0,0.0,39,0.00,,CLR,0.00,32.00,VWS V14.01,2013-12-18 22:22:00,
2013-12-18 16:25:00,58.1,33.3,29.92,WSW,252,3.0,5.0,39,0.00,,CLR,0.00,32.00,VWS V14.01,2013-12-18 22:25:00,
2013-12-18 16:27:00,58.2,33.4,29.92,SW,215,3.0,4.0,39,0.00,,CLR,0.00,28.00,VWS V14.01,2013-12-18 22:27:00,
2013-12-18 16:30:00,58.3,34.1,29.92,South,172,2.0,6.0,40,0.00,,CLR,0.00,26.00,VWS V14.01,2013-12-18 22:30:00,
2013-12-18 16:32:00,58.2,33.4,29.92,SE,129,2.0,7.0,39,0.00,,CLR,0.00,23.00,VWS V14.01,2013-12-18 22:32:00,
2013-12-18 16:35:00,58.1,34.5,29.92,SSE,148,0.0,7.0,41,0.00,,CLR,0.00,19.00,VWS V14.01,2013-12-18 22:35:00,
2013-12-18 16:37:00,57.8,34.3,29.92,West,279,4.0,5.0,41,0.00,,CLR,0.00,18.00,VWS V14.01,2013-12-18 22:37:00,
2013-12-18 16:40:00,57.3,33.8,29.92,SSW,196,1.0,7.0,41,0.00,,CLR,0.00,16.00,VWS V14.01,2013-12-18 22:40:00,
2013-12-18 16:42:00,57.2,34.3,29.92,SSW,204,0.0,2.0,42,0.00,,CLR,0.00,14.00,VWS V14.01,2013-12-18 22:42:00,
2013-12-18 16:45:00,56.7,33.9,29.91,South,171,0.0,3.0,42,0.00,,CLR,0.00,12.00,VWS V14.01,2013-12-18 22:45:00,
2013-12-18 16:47:00,56.5,34.3,29.91,SSE,163,1.0,1.0,43,0.00,,CLR,0.00,11.00,VWS V14.01,2013-12-18 22:47:00,
2013-12-18 16:50:00,56.0,34.4,29.91,SSE,163,0.0,2.0,44,0.00,,CLR,0.00,7.00,VWS V14.01,2013-12-18 22:50:00,
2013-12-18 16:52:00,55.8,34.8,29.91,SSE,164,1.0,1.0,45,0.00,,CLR,0.00,5.00,VWS V14.01,2013-12-18 22:52:00,
2013-12-18 16:55:00,55.5,34.5,29.91,SSW,198,0.0,3.0,45,0.00,,CLR,0.00,0.00,VWS V14.01,2013-12-18 22:55:00,
2013-12-18 16:57:00,55.5,34.5,29.91,SW,223,0.0,4.0,45,0.00,,CLR,0.00,0.00,VWS V14.01,2013-12-18 22:57:00,
2013-12-18 17:00:00,55.0,34.6,29.90,SSW,213,0.0,4.0,46,0.00,,CLR,0.00,0.00,VWS V14.01,2013-12-18 23:00:00,
2013-12-18 17:02:00,55.0,34.6,29.90,SE,141,0.0,2.0,46,0.00,,CLR,0.00,0.00,VWS V14.01,2013-12-18 23:02:00,
2013-12-18 17:05:00,54.9,34.5,29.90,SSW,209,0.0,2.0,46,0.00,,CLR,0.00,0.00,VWS V14.01,2013-12-18 23:05:00,
2013-12-18 17:07:00,54.8,34.4,29.90,South,173,0.0,2.0,46,0.00,,CLR,0.00,0.00,VWS V14.01,2013-12-18 23:07:00,
2013-12-18 17:10:00,54.3,35.0,29.90,South,173,0.0,2.0,48,0.00,,CLR,0.00,0.00,VWS V14.01,2013-12-18 23:10:00,
2013-12-18 17:12:00,54.2,34.4,29.90,SSE,149,2.0,2.0,47,0.00,,CLR,0.00,0.00,VWS V14.01,2013-12-18 23:12:00,
2013-12-18 17:15:00,54.2,34.4,29.90,WSW,238,4.0,4.0,47,0.00,,CLR,0.00,0.00,VWS V14.01,2013-12-18 23:15:00,
2013-12-18 17:17:00,54.5,34.7,29.90,SW,222,4.0,4.0,47,0.00,,CLR,0.00,0.00,VWS V14.01,2013-12-18 23:17:00,
2013-12-18 17:20:00,54.8,35.0,29.90,West,281,2.0,4.0,47,0.00,,CLR,0.00,0.00,VWS V14.01,2013-12-18 23:20:00,
2013-12-18 17:22:00,54.6,34.8,29.90,SSW,201,0.0,2.0,47,0.00,,CLR,0.00,0.00,VWS V14.01,2013-12-18 23:22:00,
2013-12-18 17:25:00,54.2,35.0,29.90,SW,218,0.0,4.0,48,0.00,,CLR,0.00,0.00,VWS V14.01,2013-12-18 23:25:00,
2013-12-18 17:27:00,54.1,34.9,29.90,SW,234,3.0,3.0,48,0.00,,CLR,0.00,0.00,VWS V14.01,2013-12-18 23:27:00,
2013-12-18 17:30:00,54.1,34.9,29.90,SSW,192,1.0,3.0,48,0.00,,CLR,0.00,0.00,VWS V14.01,2013-12-18 23:30:00,
2013-12-18 17:32:00,54.3,34.5,29.90,WSW,241,1.0,6.0,47,0.00,,CLR,0.00,0.00,VWS V14.01,2013-12-18 23:32:00,
2013-12-18 17:35:00,54.4,35.1,29.90,SSE,156,1.0,6.0,48,0.00,,CLR,0.00,0.00,VWS V14.01,2013-12-18 23:35:00,
2013-12-18 17:37:00,54.3,35.0,29.90,SSE,156,0.0,1.0,48,0.00,,CLR,0.00,0.00,VWS V14.01,2013-12-18 23:37:00,
2013-12-18 17:40:00,54.2,35.5,29.90,South,170,2.0,2.0,49,0.00,,CLR,0.00,0.00,VWS V14.01,2013-12-18 23:40:00,
2013-12-18 17:42:00,54.2,35.0,29.90,South,176,0.0,2.0,48,0.00,,CLR,0.00,0.00,VWS V14.01,2013-12-18 23:42:00,
2013-12-18 17:45:00,54.4,35.1,29.90,SSE,148,0.0,7.0,48,0.00,,CLR,0.00,0.00,VWS V14.01,2013-12-18 23:45:00,
2013-12-18 17:47:00,54.5,35.8,29.90,SSE,151,2.0,5.0,49,0.00,,CLR,0.00,0.00,VWS V14.01,2013-12-18 23:47:00,
2013-12-18 17:50:00,54.3,35.6,29.90,SSE,163,0.0,5.0,49,0.00,,CLR,0.00,0.00,VWS V14.01,2013-12-18 23:50:00,
2013-12-18 17:52:00,54.3,36.1,29.90,SSW,210,0.0,1.0,50,0.00,,CLR,0.00,0.00,VWS V14.01,2013-12-18 23:52:00,
2013-12-18 17:55:00,54.1,35.9,29.90,WNW,288,0.0,7.0,50,0.00,,CLR,0.00,0.00,VWS V14.01,2013-12-18 23:55:00,
2013-12-18 17:58:00,54.2,36.0,29.90,SSE,147,2.0,5.0,50,0.00,,CLR,0.00,0.00,VWS V14.01,2013-12-18 23:58:00,
2013-12-18 18:00:00,54.3,36.1,29.89,SSW,198,0.0,5.0,50,0.00,,CLR,0.00,0.00,VWS V14.01,2013-12-19 00:00:00,
2013-12-18 18:03:00,54.1,35.9,29.89,SSW,198,0.0,1.0,50,0.00,,CLR,0.00,0.00,VWS V14.01,2013-12-19 00:03:00,
2013-12-18 18:05:00,53.8,35.6,29.89,SE,142,0.0,4.0,50,0.00,,CLR,0.00,0.00,VWS V14.01,2013-12-19 00:05:00,
2013-12-18 18:08:00,53.9,35.7,29.89,SE,127,3.0,3.0,50,0.00,,CLR,0.00,0.00,VWS V14.01,2013-12-19 00:08:00,
2013-12-18 18:10:00,53.9,35.7,29.89,South,173,2.0,3.0,50,0.00,,CLR,0.00,0.00,VWS V14.01,2013-12-19 00:10:00,
2013-12-18 18:13:00,53.8,35.6,29.89,SE,146,3.0,4.0,50,0.00,,CLR,0.00,0.00,VWS V14.01,2013-12-19 00:13:00,
2013-12-18 18:15:00,53.6,35.9,29.88,SSE,165,0.0,4.0,51,0.00,,CLR,0.00,0.00,VWS V14.01,2013-12-19 00:15:00,
2013-12-18 18:18:00,53.6,35.9,29.88,SW,229,0.0,8.0,51,0.00,,CLR,0.00,0.00,VWS V14.01,2013-12-19 00:18:00,
2013-12-18 18:20:00,53.9,36.2,29.88,SSW,195,1.0,8.0,51,0.00,,CLR,0.00,0.00,VWS V14.01,2013-12-19 00:20:00,
2013-12-18 18:23:00,53.9,36.2,29.88,South,175,2.0,6.0,51,0.00,,CLR,0.00,0.00,VWS V14.01,2013-12-19 00:23:00,
2013-12-18 18:25:00,53.8,36.6,29.88,South,173,0.0,6.0,52,0.00,,CLR,0.00,0.00,VWS V14.01,2013-12-19 00:25:00,
2013-12-18 18:28:00,53.3,36.1,29.88,SW,221,3.0,7.0,52,0.00,,CLR,0.00,0.00,VWS V14.01,2013-12-19 00:28:00,
2013-12-18 18:30:00,53.3,36.1,29.89,South,169,0.0,7.0,52,0.00,,CLR,0.00,0.00,VWS V14.01,2013-12-19 00:30:00,
2013-12-18 18:33:00,53.5,36.3,29.89,SSW,192,1.0,3.0,52,0.00,,CLR,0.00,0.00,VWS V14.01,2013-12-19 00:33:00,
2013-12-18 18:35:00,53.3,36.6,29.89,SSE,161,2.0,4.0,53,0.00,,CLR,0.00,0.00,VWS V14.01,2013-12-19 00:35:00,
2013-12-18 18:38:00,53.2,36.5,29.89,SSE,159,4.0,4.0,53,0.00,,CLR,0.00,0.00,VWS V14.01,2013-12-19 00:38:00,
2013-12-18 18:40:00,53.1,36.9,29.89,SSE,156,1.0,8.0,54,0.00,,CLR,0.00,0.00,VWS V14.01,2013-12-19 00:40:00,
2013-12-18 18:43:00,53.2,37.0,29.89,SSE,163,0.0,2.0,54,0.00,,CLR,0.00,0.00,VWS V14.01,2013-12-19 00:43:00,
2013-12-18 18:45:00,53.3,37.1,29.88,South,178,0.0,4.0,54,0.00,,CLR,0.00,0.00,VWS V14.01,2013-12-19 00:45:00,
2013-12-18 18:48:00,53.1,36.9,29.88,SSW,194,0.0,2.0,54,0.00,,CLR,0.00,0.00,VWS V14.01,2013-12-19 00:48:00,
2013-12-18 18:50:00,53.0,36.8,29.88,SE,141,0.0,5.0,54,0.00,,CLR,0.00,0.00,VWS V14.01,2013-12-19 00:50:00,
2013-12-18 18:53:00,53.1,36.9,29.88,SSE,149,0.0,6.0,54,0.00,,CLR,0.00,0.00,VWS V14.01,2013-12-19 00:53:00,
2013-12-18 18:55:00,53.0,37.3,29.88,SE,136,0.0,6.0,55,0.00,,CLR,0.00,0.00,VWS V14.01,2013-12-19 00:55:00,
2013-12-18 18:58:00,52.9,37.2,29.88,SW,215,1.0,5.0,55,0.00,,CLR,0.00,0.00,VWS V14.01,2013-12-19 00:58:00,
2013-12-18 19:00:00,53.0,37.3,29.88,SW,229,5.0,9.0,55,0.00,,CLR,0.00,0.00,VWS V14.01,2013-12-19 01:00:00,
2013-12-18 19:03:00,53.0,37.3,29.88,WSW,257,1.0,5.0,55,0.00,,CLR,0.00,0.00,VWS V14.01,2013-12-19 01:03:00,
2013-12-18 19:05:00,52.9,37.7,29.88,SE,140,5.0,5.0,56,0.00,,CLR,0.00,0.00,VWS V14.01,2013-12-19 01:05:00,
2013-12-18 19:08:00,52.7,37.5,29.88,SSE,155,1.0,5.0,56,0.00,,CLR,0.00,0.00,VWS V14.01,2013-12-19 01:08:00,
2013-12-18 19:10:00,52.6,37.4,29.88,SW,215,0.0,5.0,56,0.00,,CLR,0.00,0.00,VWS V14.01,2013-12-19 01:10:00,
2013-12-18 19:13:00,52.4,37.6,29.88,SSE,162,0.0,5.0,57,0.00,,CLR,0.00,0.00,VWS V14.01,2013-12-19 01:13:00,
2013-12-18 19:15:00,52.2,37.4,29.88,SSE,151,2.0,5.0,57,0.00,,CLR,0.00,0.00,VWS V14.01,2013-12-19 01:15:00,
2013-12-18 19:18:00,52.1,37.3,29.88,SSE,167,1.0,4.0,57,0.00,,CLR,0.00,0.00,VWS V14.01,2013-12-19 01:18:00,
2013-12-18 19:20:00,52.0,37.3,29.88,SE,141,0.0,4.0,57,0.00,,CLR,0.00,0.00,VWS V14.01,2013-12-19 01:20:00,
2013-12-18 19:23:00,51.9,37.6,29.88,SE,141,0.0,4.0,58,0.00,,CLR,0.00,0.00,VWS V14.01,2013-12-19 01:23:00,
2013-12-18 19:25:00,51.9,37.6,29.88,SE,132,4.0,7.0,58,0.00,,CLR,0.00,0.00,VWS V14.01,2013-12-19 01:25:00,
2013-12-18 19:28:00,51.8,37.5,29.88,SSE,150,3.0,4.0,58,0.00,,CLR,0.00,0.00,VWS V14.01,2013-12-19 01:28:00,
2013-12-18 19:30:00,51.8,37.5,29.88,ESE,123,0.0,7.0,58,0.00,,CLR,0.00,0.00,VWS V14.01,2013-12-19 01:30:00,
2013-12-18 19:33:00,51.7,37.4,29.88,SE,140,1.0,3.0,58,0.00,,CLR,0.00,0.00,VWS V14.01,2013-12-19 01:33:00,
2013-12-18 19:35:00,51.5,37.2,29.88,South,180,0.0,3.0,58,0.00,,CLR,0.00,0.00,VWS V14.01,2013-12-19 01:35:00,
2013-12-18 19:38:00,51.4,37.1,29.88,SE,138,2.0,4.0,58,0.00,,CLR,0.00,0.00,VWS V14.01,2013-12-19 01:38:00,
2013-12-18 19:40:00,51.4,37.6,29.88,SE,128,0.0,4.0,59,0.00,,CLR,0.00,0.00,VWS V14.01,2013-12-19 01:40:00,
2013-12-18 19:43:00,51.2,37.4,29.88,SE,141,1.0,5.0,59,0.00,,CLR,0.00,0.00,VWS V14.01,2013-12-19 01:43:00,
2013-12-18 19:45:00,51.2,37.4,29.88,SSE,150,1.0,5.0,59,0.00,,CLR,0.00,0.00,VWS V14.01,2013-12-19 01:45:00,
2013-12-18 19:48:00,51.1,37.3,29.88,ESE,119,3.0,5.0,59,0.00,,CLR,0.00,0.00,VWS V14.01,2013-12-19 01:48:00,
2013-12-18 19:50:00,51.0,37.2,29.88,SE,126,0.0,5.0,59,0.00,,CLR,0.00,0.00,VWS V14.01,2013-12-19 01:50:00,
2013-12-18 19:53:00,50.8,37.4,29.88,SSE,151,1.0,3.0,60,0.00,,CLR,0.00,0.00,VWS V14.01,2013-12-19 01:53:00,
2013-12-18 19:55:00,50.6,37.2,29.88,SSE,153,2.0,3.0,60,0.00,,CLR,0.00,0.00,VWS V14.01,2013-12-19 01:55:00,
2013-12-18 19:58:00,50.5,37.2,29.88,SE,139,0.0,3.0,60,0.00,,CLR,0.00,0.00,VWS V14.01,2013-12-19 01:58:00,
2013-12-18 20:00:00,50.4,37.0,29.88,East,101,2.0,5.0,60,0.00,,CLR,0.00,0.00,VWS V14.01,2013-12-19 02:00:00,
2013-12-18 20:03:00,50.3,37.0,29.88,SE,132,2.0,2.0,60,0.00,,CLR,0.00,0.00,VWS V14.01,2013-12-19 02:03:00,
2013-12-18 20:05:00,50.1,37.2,29.88,SE,132,4.0,4.0,61,0.00,,CLR,0.00,0.00,VWS V14.01,2013-12-19 02:05:00,
2013-12-18 20:09:00,50.1,37.2,29.88,SE,137,2.0,5.0,61,0.00,,CLR,0.00,0.00,VWS V14.01,2013-12-19 02:09:00,
2013-12-18 20:10:00,50.0,37.1,29.88,SSE,156,2.0,5.0,61,0.00,,CLR,0.00,0.00,VWS V14.01,2013-12-19 02:10:00,
2013-12-18 20:14:00,49.7,37.2,29.88,SE,133,0.0,4.0,62,0.00,,CLR,0.00,0.00,VWS V14.01,2013-12-19 02:14:00,
2013-12-18 20:15:00,49.6,37.1,29.88,SSE,153,0.0,4.0,62,0.00,,CLR,0.00,0.00,VWS V14.01,2013-12-19 02:15:00,
2013-12-18 20:19:00,49.4,36.9,29.88,SE,125,1.0,5.0,62,0.00,,CLR,0.00,0.00,VWS V14.01,2013-12-19 02:19:00,
2013-12-18 20:20:00,49.3,37.2,29.88,SSE,150,1.0,6.0,63,0.00,,CLR,0.00,0.00,VWS V14.01,2013-12-19 02:20:00,
2013-12-18 20:24:00,49.2,37.2,29.88,South,190,1.0,6.0,63,0.00,,CLR,0.00,0.00,VWS V14.01,2013-12-19 02:24:00,
2013-12-18 20:25:00,49.1,37.1,29.88,SSE,150,0.0,6.0,63,0.00,,CLR,0.00,0.00,VWS V14.01,2013-12-19 02:25:00,
2013-12-18 20:29:00,48.8,37.2,29.88,SE,142,2.0,3.0,64,0.00,,CLR,0.00,0.00,VWS V14.01,2013-12-19 02:29:00,
2013-12-18 20:30:00,48.7,37.1,29.88,SE,136,2.0,5.0,64,0.00,,CLR,0.00,0.00,VWS V14.01,2013-12-19 02:30:00,
2013-12-18 20:34:00,48.7,37.1,29.88,SSE,162,0.0,4.0,64,0.00,,CLR,0.00,0.00,VWS V14.01,2013-12-19 02:34:00,
2013-12-18 20:35:00,48.6,37.0,29.88,SSE,155,2.0,4.0,64,0.00,,CLR,0.00,0.00,VWS V14.01,2013-12-19 02:35:00,
2013-12-18 20:39:00,48.6,37.4,29.88,SSE,151,0.0,4.0,65,0.00,,CLR,0.00,0.00,VWS V14.01,2013-12-19 02:39:00,
2013-12-18 20:40:00,48.6,37.4,29.88,SSE,153,1.0,4.0,65,0.00,,CLR,0.00,0.00,VWS V14.01,2013-12-19 02:40:00,
2013-12-18 20:44:00,48.4,37.2,29.88,SE,134,1.0,5.0,65,0.00,,CLR,0.00,0.00,VWS V14.01,2013-12-19 02:44:00,
2013-12-18 20:45:00,48.3,37.1,29.87,East,97,3.0,6.0,65,0.00,,CLR,0.00,0.00,VWS V14.01,2013-12-19 02:45:00,
2013-12-18 20:49:00,48.2,37.4,29.87,ESE,116,0.0,5.0,66,0.00,,CLR,0.00,0.00,VWS V14.01,2013-12-19 02:49:00,
2013-12-18 20:50:00,48.1,37.3,29.87,ESE,116,2.0,5.0,66,0.00,,CLR,0.00,0.00,VWS V14.01,2013-12-19 02:50:00,
2013-12-18 20:54:00,48.0,37.2,29.87,ESE,122,0.0,2.0,66,0.00,,CLR,0.00,0.00,VWS V14.01,2013-12-19 02:54:00,
2013-12-18 20:55:00,48.0,37.2,29.87,SSE,162,1.0,2.0,66,0.00,,CLR,0.00,0.00,VWS V14.01,2013-12-19 02:55:00,
2013-12-18 20:59:00,48.1,37.3,29.87,SE,130,0.0,4.0,66,0.00,,CLR,0.00,0.00,VWS V14.01,2013-12-19 02:59:00,
2013-12-18 21:00:00,48.1,37.3,29.87,SE,129,1.0,4.0,66,0.00,,CLR,0.00,0.00,VWS V14.01,2013-12-19 03:00:00,
2013-12-18 21:04:00,48.0,37.2,29.87,SE,135,4.0,4.0,66,0.00,,CLR,0.00,0.00,VWS V14.01,2013-12-19 03:04:00,
2013-12-18 21:05:00,48.0,37.2,29.87,SSE,161,0.0,4.0,66,0.00,,CLR,0.00,0.00,VWS V14.01,2013-12-19 03:05:00,
2013-12-18 21:09:00,47.9,37.5,29.87,SSE,161,1.0,7.0,67,0.00,,CLR,0.00,0.00,VWS V14.01,2013-12-19 03:09:00,
2013-12-18 21:10:00,47.9,37.5,29.87,South,186,1.0,7.0,67,0.00,,CLR,0.00,0.00,VWS V14.01,2013-12-19 03:10:00,
2013-12-18 21:14:00,47.8,37.4,29.87,SE,136,0.0,4.0,67,0.00,,CLR,0.00,0.00,VWS V14.01,2013-12-19 03:14:00,
2013-12-18 21:15:00,47.8,37.4,29.87,South,177,2.0,4.0,67,0.00,,CLR,0.00,0.00,VWS V14.01,2013-12-19 03:15:00,
2013-12-18 21:19:00,47.8,37.4,29.87,South,175,1.0,5.0,67,0.00,,CLR,0.00,0.00,VWS V14.01,2013-12-19 03:19:00,
2013-12-18 21:20:00,47.8,37.4,29.87,SE,130,1.0,5.0,67,0.00,,CLR,0.00,0.00,VWS V14.01,2013-12-19 03:20:00,
2013-12-18 21:24:00,47.8,37.4,29.87,SE,143,1.0,4.0,67,0.00,,CLR,0.00,0.00,VWS V14.01,2013-12-19 03:24:00,
2013-12-18 21:25:00,47.9,37.5,29.87,East,99,2.0,4.0,67,0.00,,CLR,0.00,0.00,VWS V14.01,2013-12-19 03:25:00,
2013-12-18 21:29:00,47.9,37.5,29.87,SE,144,0.0,7.0,67,0.00,,CLR,0.00,0.00,VWS V14.01,2013-12-19 03:29:00,
2013-12-18 21:30:00,47.9,37.5,29.87,SSE,150,2.0,7.0,67,0.00,,CLR,0.00,0.00,VWS V14.01,2013-12-19 03:30:00,
2013-12-18 21:34:00,48.0,37.6,29.87,South,181,0.0,6.0,67,0.00,,CLR,0.00,0.00,VWS V14.01,2013-12-19 03:34:00,
2013-12-18 21:35:00,48.0,37.6,29.87,SSE,150,1.0,6.0,67,0.00,,CLR,0.00,0.00,VWS V14.01,2013-12-19 03:35:00,
2013-12-18 21:39:00,48.0,37.6,29.87,SE,139,1.0,3.0,67,0.00,,CLR,0.00,0.00,VWS V14.01,2013-12-19 03:39:00,
2013-12-18 21:40:00,48.0,37.6,29.87,SE,141,4.0,4.0,67,0.00,,CLR,0.00,0.00,VWS V14.01,2013-12-19 03:40:00,
2013-12-18 21:44:00,48.1,37.7,29.87,SE,144,0.0,7.0,67,0.00,,CLR,0.00,0.00,VWS V14.01,2013-12-19 03:44:00,
2013-12-18 21:45:00,48.1,37.7,29.87,SE,140,4.0,7.0,67,0.00,,CLR,0.00,0.00,VWS V14.01,2013-12-19 03:45:00,
2013-12-18 21:49:00,48.2,37.8,29.87,SSE,150,0.0,5.0,67,0.00,,CLR,0.00,0.00,VWS V14.01,2013-12-19 03:49:00,
2013-12-18 21:50:00,48.3,37.9,29.87,ESE,111,3.0,5.0,67,0.00,,CLR,0.00,0.00,VWS V14.01,2013-12-19 03:50:00,
2013-12-18 21:54:00,48.3,37.9,29.87,SSE,147,0.0,6.0,67,0.00,,CLR,0.00,0.00,VWS V14.01,2013-12-19 03:54:00,
2013-12-18 21:55:00,48.3,37.9,29.87,SSE,155,5.0,6.0,67,0.00,,CLR,0.00,0.00,VWS V14.01,2013-12-19 03:55:00,
2013-12-18 22:00:00,48.5,38.1,29.87,SSE,161,3.0,6.0,67,0.00,,CLR,0.00,0.00,VWS V14.01,2013-12-19 04:00:00,
2013-12-18 22:05:00,48.5,38.1,29.87,SSE,163,2.0,4.0,67,0.00,,CLR,0.00,0.00,VWS V14.01,2013-12-19 04:05:00,
2013-12-18 22:10:00,48.5,38.1,29.87,SE,142,1.0,7.0,67,0.00,,CLR,0.00,0.00,VWS V14.01,2013-12-19 04:10:00,
2013-12-18 22:15:00,48.4,38.0,29.87,SE,140,0.0,4.0,67,0.00,,CLR,0.00,0.00,VWS V14.01,2013-12-19 04:15:00,
2013-12-18 22:20:00,48.3,37.9,29.87,SSE,155,0.0,5.0,67,0.00,,CLR,0.00,0.00,VWS V14.01,2013-12-19 04:20:00,
2013-12-18 22:25:00,48.1,38.0,29.87,SE,144,4.0,5.0,68,0.00,,CLR,0.00,0.00,VWS V14.01,2013-12-19 04:25:00,
2013-12-18 22:30:00,48.1,38.0,29.87,SE,139,1.0,3.0,68,0.00,,CLR,0.00,0.00,VWS V14.01,2013-12-19 04:30:00,
2013-12-18 22:35:00,48.2,38.2,29.87,ESE,104,3.0,9.0,68,0.00,,CLR,0.00,0.00,VWS V14.01,2013-12-19 04:35:00,
2013-12-18 22:40:00,48.2,38.2,29.87,SE,130,2.0,5.0,68,0.00,,CLR,0.00,0.00,VWS V14.01,2013-12-19 04:40:00,
2013-12-18 22:45:00,48.2,38.2,29.87,SSE,151,1.0,3.0,68,0.00,,CLR,0.00,0.00,VWS V14.01,2013-12-19 04:45:00,
2013-12-18 22:50:00,48.1,38.0,29.87,ESE,121,0.0,3.0,68,0.00,,CLR,0.00,0.00,VWS V14.01,2013-12-19 04:50:00,
2013-12-18 22:55:00,48.1,38.0,29.87,ESE,105,3.0,4.0,68,0.00,,CLR,0.00,0.00,VWS V14.01,2013-12-19 04:55:00,
2013-12-18 23:00:00,48.0,38.0,29.87,SE,132,2.0,2.0,68,0.00,,CLR,0.00,0.00,VWS V14.01,2013-12-19 05:00:00,
2013-12-18 23:01:00,48.0,38.0,29.87,SE,137,3.0,4.0,68,0.00,,CLR,0.00,0.00,VWS V14.01,2013-12-19 05:01:00,
2013-12-18 23:02:00,47.9,37.9,29.87,SE,144,0.0,3.0,68,0.00,,CLR,0.00,0.00,VWS V14.01,2013-12-19 05:02:00,
2013-12-18 23:03:00,47.9,37.9,29.87,SE,132,2.0,3.0,68,0.00,,CLR,0.00,0.00,VWS V14.01,2013-12-19 05:03:00,
2013-12-18 23:05:00,47.9,37.9,29.87,ESE,120,2.0,3.0,68,0.00,,CLR,0.00,0.00,VWS V14.01,2013-12-19 05:05:00,
2013-12-18 23:06:00,47.9,38.2,29.87,ESE,123,0.0,3.0,69,0.00,,CLR,0.00,0.00,VWS V14.01,2013-12-19 05:06:00,
2013-12-18 23:10:00,47.8,38.1,29.87,SE,134,1.0,3.0,69,0.00,,CLR,0.00,0.00,VWS V14.01,2013-12-19 05:10:00,
2013-12-18 23:11:00,47.8,38.1,29.87,SE,134,1.0,3.0,69,0.00,,CLR,0.00,0.00,VWS V14.01,2013-12-19 05:11:00,
2013-12-18 23:15:00,47.8,38.1,29.86,SE,141,0.0,4.0,69,0.00,,CLR,0.00,0.00,VWS V14.01,2013-12-19 05:15:00,
2013-12-18 23:16:00,47.8,38.1,29.86,SE,141,0.0,4.0,69,0.00,,CLR,0.00,0.00,VWS V14.01,2013-12-19 05:16:00,
2013-12-18 23:20:00,47.7,38.4,29.86,SSE,163,0.0,2.0,70,0.00,,CLR,0.00,0.00,VWS V14.01,2013-12-19 05:20:00,
2013-12-18 23:21:00,47.7,38.4,29.86,SSE,163,0.0,2.0,70,0.00,,CLR,0.00,0.00,VWS V14.01,2013-12-19 05:21:00,
2013-12-18 23:25:00,47.8,38.5,29.86,SSE,152,0.0,4.0,70,0.00,,CLR,0.00,0.00,VWS V14.01,2013-12-19 05:25:00,
2013-12-18 23:26:00,47.8,38.5,29.86,SSE,152,0.0,4.0,70,0.00,,CLR,0.00,0.00,VWS V14.01,2013-12-19 05:26:00,
2013-12-18 23:30:00,47.8,38.5,29.86,ESE,123,0.0,5.0,70,0.00,,CLR,0.00,0.00,VWS V14.01,2013-12-19 05:30:00,
2013-12-18 23:31:00,47.8,38.5,29.86,ESE,123,0.0,5.0,70,0.00,,CLR,0.00,0.00,VWS V14.01,2013-12-19 05:31:00,
2013-12-18 23:35:00,47.9,38.6,29.86,ESE,106,0.0,4.0,70,0.00,,CLR,0.00,0.00,VWS V14.01,2013-12-19 05:35:00,
2013-12-18 23:36:00,47.9,38.6,29.86,ESE,106,0.0,1.0,70,0.00,,CLR,0.00,0.00,VWS V14.01,2013-12-19 05:36:00,
2013-12-18 23:40:00,47.9,38.6,29.86,South,173,1.0,3.0,70,0.00,,CLR,0.00,0.00,VWS V14.01,2013-12-19 05:40:00,
2013-12-18 23:41:00,47.9,38.6,29.86,SSE,148,2.0,3.0,70,0.00,,CLR,0.00,0.00,VWS V14.01,2013-12-19 05:41:00,
2013-12-18 23:45:00,48.0,38.7,29.86,SE,145,0.0,3.0,70,0.00,,CLR,0.00,0.00,VWS V14.01,2013-12-19 05:45:00,
2013-12-18 23:46:00,48.0,38.7,29.86,SE,145,0.0,1.0,70,0.00,,CLR,0.00,0.00,VWS V14.01,2013-12-19 05:46:00,
2013-12-18 23:50:00,48.0,38.7,29.86,SSE,167,0.0,3.0,70,0.00,,CLR,0.00,0.00,VWS V14.01,2013-12-19 05:50:00,
2013-12-18 23:51:00,48.0,38.7,29.86,SSE,167,0.0,0.0,70,0.00,,CLR,0.00,0.00,VWS V14.01,2013-12-19 05:51:00,
2013-12-18 23:55:00,48.1,38.8,29.86,SE,133,0.0,7.0,70,0.00,,CLR,0.00,0.00,VWS V14.01,2013-12-19 05:55:00,
2013-12-18 23:56:00,48.1,38.8,29.86,SSE,149,0.0,4.0,70,0.00,,CLR,0.00,0.00,VWS V14.01,2013-12-19 05:56:00,